Theta_e
302 303 304 303 303 304 302 304 299 302 303 308 311 313 314 315 314 315 318 319 323 324 324 324 326 326 322 323 323 325 324 324 324 324 322 321 321 320 318 316 314 314 312 312
297 302 302 299 302 303 303 304 305 306 305 313 315 315 312 313 315 315 317 319 321 323 324 324 322 324 323 323 324 322 322 321 321 319 316 319 319 317 316 314 313 312 311 310
289 299 299 294 300 302 303 305 305 301 306 311 310 310 314 315 316 317 317 317 320 322 321 325 326 324 321 321 321 321 319 317 315 315 314 315 314 313 313 313 313 309 308 308
286 290 283 299 306 305 303 305 306 306 307 309 310 313 313 315 314 316 318 319 322 322 318 323 320 322 321 319 318 317 315 314 313 312 311 311 311 311 313 313 309 306 306 306
282 285 290 294 300 301 296 299 306 306 307 309 310 311 312 318 318 319 320 320 320 319 320 320 316 319 319 315 315 314 312 311 310 308 308 308 308 309 310 309 306 304 304 304
286 282 279 290 297 302 303 292 307 307 308 309 310 303 308 317 317 323 322 321 319 319 318 318 318 319 317 312 313 310 308 307 307 307 307 306 306 306 308 306 303 303 302 302
285 284 287 297 301 306 291 296 308 309 308 308 310 313 319 321 321 320 319 319 319 317 315 315 316 317 312 310 308 307 307 306 305 305 304 305 304 305 303 302 301 299 299 299
286 284 282 298 300 295 299 305 307 308 308 310 314 317 317 317 316 315 315 313 312 312 311 311 312 312 309 307 307 306 305 303 303 304 303 302 303 301 300 298 298 297 298 297
287 285 293 298 296 301 304 304 305 307 310 313 313 311 311 311 312 312 311 311 310 308 308 307 308 307 305 304 303 303 303 302 303 303 301 302 301 298 297 297 296 297 296 296
291 293 295 298 301 302 303 305 308 312 311 309 307 308 307 307 307 307 308 308 308 306 304 303 304 303 303 303 303 302 301 301 301 302 300 302 299 298 296 295 295 295 295 295
292 294 297 298 300 301 302 305 307 308 308 308 307 305 305 304 304 304 304 304 305 304 303 302 303 303 303 302 302 300 300 300 300 299 298 298 297 298 297 297 296 295 295 296
289 296 296 297 301 301 301 304 306 305 303 304 304 302 303 302 302 302 302 302 302 302 302 301 301 301 302 303 303 301 299 297 297 296 296 296 295 295 296 294 294 293 292 293
295 300 300 301 299 301 307 306 306 304 304 303 303 302 302 300 301 301 301 301 301 301 301 301 301 301 302 303 302 300 298 297 297 296 295 295 295 295 294 295 295 293 292 292
299 299 295 296 295 299 302 302 303 304 303 302 301 301 301 300 300 300 299 300 301 301 300 301 300 300 301 301 301 299 298 296 296 296 296 295 294 293 293 292 292 293 295 294
298 299 297 298 298 297 298 298 298 298 299 299 299 299 300 299 299 298 300 301 301 301 300 300 299 298 299 301 299 298 297 296 296 295 294 294 293 293 293 293 292 292 293 293
297 297 298 297 296 295 296 296 295 295 297 298 298 299 299 300 300 300 301 301 300 298 299 299 297 298 301 300 299 297 297 294 293 293 293 292 292 291 291 291 290 290 290 290
297 295 295 295 295 295 294 295 296 297 298 298 299 300 300 300 300 300 301 301 302 299 299 298 296 298 299 299 296 295 295 294 289 293 291 291 291 290 289 288 288 287 287 289
298 298 298 297 296 296 296 297 298 299 298 300 301 300 299 299 299 300 300 301 299 297 299 299 298 299 297 295 295 295 294 293 293 292 291 289 288 288 287 287 286 286 287 288
298 298 298 298 299 299 298 299 299 300 301 300 300 299 301 301 301 300 301 299 297 293 297 299 296 296 296 295 293 296 295 294 293 292 290 288 288 287 287 286 286 286 287 286
302 301 300 300 300 300 299 300 301 301 301 300 301 300 299 300 300 300 301 298 297 296 299 299 297 295 295 296 291 296 296 295 294 292 290 289 288 286 286 286 286 286 286 286
304 304 302 303 302 302 302 303 302 302 303 303 301 300 302 301 300 300 297 295 297 296 298 296 295 293 295 292 293 298 297 295 294 292 290 289 288 287 286 286 286 285 285 285
308 307 305 305 305 304 306 305 305 305 305 304 303 302 300 299 299 300 300 297 298 287 296 296 295 288 290 285 298 297 296 296 294 292 291 289 288 286 286 285 285 285 285 284
309 308 309 308 307 306 307 306 306 306 306 303 295 293 297 303 304 301 297 299 297 293 296 296 288 286 285 298 298 297 296 295 294 292 291 290 288 287 286 285 285 285 284 284
310 310 308 310 309 307 305 304 306 306 305 305 303 299 304 303 301 302 301 290 289 290 296 294 291 286 284 299 298 297 296 296 295 293 291 289 289 287 286 285 285 285 285 284
310 310 310 308 306 305 307 307 306 306 305 305 304 304 304 303 300 301 300 299 289 293 298 287 288 286 300 299 298 297 296 296 294 293 291 290 288 287 286 285 285 284 284 284
309 307 306 308 307 306 305 305 302 304 303 302 302 303 303 302 301 301 301 296 299 295 300 301 299 300 300 299 298 297 295 295 294 293 291 289 288 287 286 285 285 285 284 284
308 303 308 306 307 307 306 304 303 302 302 303 301 302 302 302 300 298 294 299 299 299 300 301 299 297 298 298 298 297 295 294 292 292 292 289 288 287 286 285 285 285 285 284
Wind_Speed
27 29 29 29 27 12 15 28 16 20 22 19 4 11 3 3 9 14 3 7 9 14 16 17 14 9 8 11 8 8 6 5 7 6 3 1 2 3 4 5 6 7 8 9
27 29 27 29 31 30 25 23 23 25 22 17 7 13 11 15 15 19 14 23 24 14 16 17 17 12 10 8 7 8 4 3 6 3 1 2 3 4 4 5 6 7 9 10
12 14 20 25 31 28 27 25 23 19 20 17 12 15 15 15 18 16 19 17 21 15 13 12 12 13 12 9 10 6 4 2 1 2 3 3 4 4 4 4 5 7 9 9
12 13 7 10 16 23 25 22 22 19 20 21 16 13 13 14 10 15 13 4 12 12 19 16 12 11 14 11 11 6 2 3 3 4 5 6 6 6 4 4 4 7 8 9
10 13 17 26 19 9 15 22 23 21 20 13 12 15 10 11 12 10 22 20 21 18 20 18 14 12 7 12 10 4 4 2 6 7 7 7 7 7 6 5 5 7 9 10
15 14 20 21 23 32 16 16 13 14 19 23 14 12 4 16 8 20 23 20 19 19 18 16 11 10 9 9 7 3 8 7 7 8 8 9 9 9 7 5 6 7 8 9
13 15 15 15 21 18 6 5 17 15 15 18 6 11 15 20 22 22 19 18 17 17 15 13 10 7 9 9 10 8 6 6 7 7 7 8 8 7 8 8 9 11 11 11
5 6 9 20 7 9 7 11 13 13 12 15 7 16 18 18 18 17 20 20 18 15 14 12 9 8 10 11 7 6 7 6 7 6 6 7 7 7 8 10 10 11 10 10
2 1 8 7 7 11 8 6 11 5 8 16 17 14 14 16 17 16 18 15 15 14 13 12 11 10 11 8 7 5 5 6 7 8 8 6 7 8 8 9 9 8 7 7
7 3 7 11 7 13 12 10 16 12 11 20 14 13 12 13 15 13 13 12 12 13 13 11 10 9 8 8 8 6 7 7 6 6 7 8 7 7 8 8 9 8 8 8
4 13 5 14 12 15 16 14 16 22 19 17 6 16 17 15 13 13 15 13 11 11 10 10 9 8 8 5 3 5 5 6 8 8 9 9 9 7 8 10 9 10 10 9
6 12 8 9 15 21 18 11 19 24 24 20 15 18 16 14 14 12 12 10 10 10 10 10 8 7 6 7 9 9 9 8 8 7 7 7 7 8 9 13 16 14 11 10
6 12 12 9 21 25 4 11 20 23 18 19 15 16 16 13 11 11 13 13 10 10 9 8 7 8 11 10 8 8 7 7 7 7 6 7 8 8 9 9 12 15 16 17
2 2 13 19 12 16 21 19 23 20 16 13 14 12 11 12 13 13 13 10 9 9 9 9 10 12 12 11 10 7 8 8 6 7 8 8 8 9 9 10 11 10 10 8
15 13 11 11 15 17 17 15 19 15 14 13 15 11 10 13 13 11 9 9 9 10 12 11 11 13 11 10 10 10 8 7 8 8 8 10 9 9 9 10 10 11 11 10
13 13 13 14 16 16 14 14 18 15 13 14 12 11 11 11 10 10 10 10 10 9 10 12 12 11 10 11 11 9 9 10 9 9 9 9 9 9 9 9 10 10 10 10
12 13 13 12 12 15 14 13 13 12 12 9 8 7 9 10 10 10 10 9 11 11 10 11 11 11 12 12 12 8 7 7 8 8 9 10 9 9 10 10 9 9 10 10
15 13 13 12 11 12 13 12 11 9 10 10 9 10 10 10 9 8 9 9 11 10 10 10 10 10 12 11 11 7 6 7 7 8 8 8 9 9 9 9 10 10 10 10
12 12 14 13 12 11 11 12 11 11 10 10 10 10 9 11 10 9 9 10 10 10 9 10 10 12 11 9 8 6 6 7 8 8 8 11 9 9 9 9 10 10 10 10
11 11 11 11 11 10 10 10 9 10 11 11 9 11 9 9 7 9 9 10 10 7 8 9 11 10 11 11 9 6 7 8 8 9 8 10 9 10 10 11 11 10 10 10
5 5 7 8 9 9 10 9 9 8 7 9 8 6 5 9 11 10 9 7 9 10 9 5 9 8 7 8 9 6 7 8 9 10 10 10 10 11 11 11 10 9 10 10
7 4 6 4 3 7 8 6 5 4 5 9 10 9 8 9 8 8 8 6 6 5 8 8 6 7 7 9 7 7 9 9 10 10 11 10 10 10 11 11 11 10 10 9
7 5 3 7 9 9 7 6 8 9 11 10 6 5 3 1 2 4 4 6 7 7 6 5 3 6 7 5 7 7 9 10 10 11 11 11 10 10 10 11 11 10 10 10
7 11 8 4 9 9 8 8 8 8 8 9 7 5 1 4 6 4 5 4 3 7 2 2 2 7 6 5 7 7 8 9 10 11 12 14 11 10 10 11 11 11 10 11
13 11 4 4 6 4 6 3 6 7 5 5 4 5 6 4 4 4 4 6 2 7 7 2 5 7 6 6 7 8 8 8 9 10 12 12 13 12 11 11 11 11 11 10
10 7 7 9 7 6 3 2 4 3 3 3 4 4 4 5 5 5 6 6 8 7 7 6 5 7 7 6 8 9 9 10 10 11 12 12 12 13 12 13 12 12 11 11
6 8 3 4 2 3 5 5 4 6 8 6 6 6 6 6 4 4 6 7 8 9 8 8 9 9 10 8 10 10 9 10 9 11 12 12 12 12 12 12 12 11 11 11
Wind_Direction
265 263 269 278 282 259 250 277 280 293 287 283 117 112 78 1 332 310 4 57 266 167 158 170 172 187 158 167 186 173 177 133 109 108 134 250 348 337 334 333 328 326 325 320
277 256 258 264 271 268 259 227 244 251 256 269 150 157 203 216 239 228 215 197 206 182 166 174 166 175 159 162 116 98 99 118 108 109 276 305 329 319 336 329 337 330 318 320
273 289 285 255 249 260 262 263 268 251 247 245 228 159 218 200 196 209 223 227 179 180 173 172 151 138 114 107 96 96 116 109 198 250 293 318 330 324 318 326 334 339 321 317
283 306 249 270 286 270 273 281 288 290 299 290 277 290 250 228 214 200 214 152 159 109 95 96 82 100 112 106 100 104 108 264 284 324 347 342 322 310 317 307 340 319 317 312
234 266 295 293 290 360 38 320 314 305 326 282 291 289 284 97 89 66 81 76 87 94 98 99 94 95 110 98 98 122 238 0 12 351 333 329 315 324 327 350 337 316 303 308
255 263 253 270 284 295 106 279 337 3 357 349 345 260 94 86 82 80 86 84 88 90 88 91 100 101 96 96 98 65 38 15 358 346 346 342 336 323 325 335 307 298 305 305
232 239 258 344 331 311 237 348 342 7 8 354 52 83 78 74 79 84 91 99 99 90 92 90 89 99 83 70 63 44 19 357 351 355 335 308 324 328 330 324 305 297 296 297
225 238 241 355 323 350 335 323 342 347 12 358 342 96 91 92 92 97 93 91 91 87 81 72 61 64 73 68 48 29 13 341 335 329 327 322 328 314 310 303 297 291 295 296
192 345 234 302 310 312 312 337 295 338 11 53 44 35 101 96 86 82 83 86 89 85 80 72 61 45 65 53 37 6 336 350 342 342 314 323 305 310 307 302 298 299 304 297
334 70 8 37 356 311 341 320 353 2 101 92 83 107 80 73 84 86 89 86 89 92 88 77 67 68 68 53 27 360 356 346 323 296 347 322 337 308 305 302 298 296 290 291
31 27 40 1 357 337 330 320 70 63 60 71 91 105 80 75 72 66 65 60 61 68 78 73 60 59 61 58 19 353 2 339 339 349 332 319 316 312 302 297 294 295 291 296
360 11 357 359 356 342 312 317 98 88 69 73 86 70 71 61 62 66 75 79 76 76 63 56 50 45 41 29 21 12 354 344 327 304 304 300 298 296 272 267 274 281 273 260
350 34 18 3 15 338 125 112 87 89 84 82 71 74 75 77 77 82 74 64 59 62 60 47 28 31 29 20 3 356 334 310 308 309 312 304 301 302 308 304 288 279 274 268
342 104 50 40 23 5 74 79 80 78 81 90 90 72 69 76 67 62 63 64 69 60 46 32 26 30 15 358 12 7 350 334 338 333 327 320 319 308 299 297 301 297 278 290
64 78 99 84 56 35 47 49 74 75 74 68 68 72 66 71 64 63 51 57 57 47 40 30 22 17 352 1 8 359 350 354 348 330 321 315 305 305 302 302 303 305 306 295
65 69 77 75 70 61 40 66 70 70 74 76 79 79 78 77 76 69 58 47 52 45 32 35 17 0 347 11 8 356 352 2 339 327 319 319 316 313 313 311 311 308 306 308
93 86 80 81 89 90 74 72 74 80 90 88 98 103 82 77 70 65 58 48 54 48 26 42 12 354 8 21 359 3 349 330 323 337 335 331 328 328 320 310 306 304 299 300
74 78 80 81 80 83 94 103 105 98 84 80 77 73 70 65 60 64 59 48 54 31 16 41 7 3 6 25 3 358 332 325 331 339 332 328 323 310 306 304 304 303 303 303
85 81 80 84 85 87 90 86 86 86 83 78 75 68 55 47 45 47 54 48 43 19 356 27 7 19 357 21 1 330 314 332 334 336 333 330 323 321 317 313 310 310 310 310
69 77 82 92 93 94 94 93 91 83 73 68 58 58 46 45 33 40 41 71 52 11 335 32 18 9 348 348 352 303 346 337 341 340 334 332 327 325 321 316 317 316 317 315
109 57 58 87 109 103 98 92 84 80 103 95 80 42 48 39 35 42 38 19 39 355 341 43 25 4 343 340 316 345 345 347 352 347 339 333 328 328 326 323 319 320 319 318
18 91 152 214 120 95 88 96 92 86 65 59 52 52 46 42 28 36 56 44 16 350 323 44 12 347 325 322 344 349 347 357 354 347 341 336 330 327 328 327 324 322 320 317
27 7 77 103 98 100 100 88 61 64 70 74 80 85 95 337 289 36 38 41 15 346 323 36 337 312 325 342 347 353 351 357 355 347 342 338 333 328 326 326 325 321 322 321
51 71 82 29 85 94 87 94 94 86 92 112 129 189 294 52 22 26 66 136 352 318 59 27 348 300 296 8 350 360 360 0 354 348 342 340 337 332 330 327 326 326 323 322
46 58 70 87 94 119 118 127 126 106 114 108 136 145 89 75 72 13 41 21 204 323 3 165 231 286 347 14 2 10 11 3 356 351 343 342 337 335 333 332 329 327 324 325
77 70 1 360 12 44 24 62 57 91 98 116 91 73 85 103 35 59 20 28 19 342 26 18 30 6 355 26 14 19 16 2 359 352 346 343 337 336 333 333 331 331 329 328
115 119 104 104 328 3 43 5 330 52 31 4 66 52 55 49 92 48 47 23 19 8 19 25 21 6 354 27 22 17 19 2 359 352 349 344 340 335 334 332 331 329 329 330